| time (UTC) | temp C | wind direction | speed KPH | gust KPH | rain 1hr cm | rain 24hr cm | rain mn cm | humidity % | barometer mb |
| 20260903131015 | 23 | 208 | 1.6 | 11.3 | 0.00 | 0.00 | 0.00 | 95 | 1012.2 |
| 20260903130515 | 23 | 243 | 3.2 | 11.3 | 0.00 | 0.00 | 0.00 | 95 | 1012.1 |
| 20260903130015 | 23 | 245 | 1.6 | 8.0 | 0.00 | 0.00 | 0.00 | 95 | 1012.1 |
| 20260903125515 | 23 | 264 | 0.0 | 3.2 | 0.00 | 0.00 | 0.00 | 95 | 1012.2 |
| 20260903125016 | 22 | 279 | 0.0 | 3.2 | 0.00 | 0.00 | 0.00 | 96 | 1012.2 |
| 20260903124515 | 22 | 284 | 0.0 | 3.2 | 0.00 | 0.00 | 0.00 | 95 | 1012.1 |
| 20260903124016 | 22 | 278 | 0.0 | 4.8 | 0.00 | 0.00 | 0.00 | 95 | 1012.1 |
| 20260903123517 | 22 | 282 | 1.6 | 4.8 | 0.00 | 0.00 | 0.00 | 95 | 1012.2 |
| 20260903123017 | 22 | 0.0 | 4.8 | 0.00 | 0.00 | 0.00 | 96 | 1012.2 | |
| 20260903122518 | 22 | 212 | 0.0 | 4.8 | 0.00 | 0.00 | 0.00 | 96 | 1012.2 |
| 20260903122017 | 22 | 198 | 0.0 | 4.8 | 0.00 | 0.00 | 0.00 | 96 | 1012.3 |
| 20260903121517 | 22 | 185 | 0.0 | 4.8 | 0.00 | 0.00 | 0.00 | 96 | 1012.4 |
| 20260903121017 | 22 | 167 | 0.0 | 4.8 | 0.00 | 0.00 | 0.00 | 96 | 1012.6 |
| 20260903120517 | 22 | 123 | 0.0 | 3.2 | 0.00 | 0.00 | 0.00 | 95 | 1012.6 |
| 20260903120017 | 22 | 139 | 0.0 | 3.2 | 0.00 | 0.00 | 0.00 | 96 | 1012.7 |
| 20260903115537 | 22 | 92 | 0.0 | 4.8 | 0.00 | 0.00 | 0.00 | 96 | 1012.6 |
| 20260903115017 | 22 | 79 | 1.6 | 4.8 | 0.00 | 0.00 | 0.00 | 96 | 1012.5 |
| 20260903114518 | 21 | 102 | 0.0 | 3.2 | 0.00 | 0.03 | 0.00 | 95 | 1012.6 |
| 20260903114018 | 21 | 91 | 0.0 | 3.2 | 0.00 | 0.03 | 0.00 | 95 | 1012.6 |
| 20260903113517 | 21 | 91 | 0.0 | 4.8 | 0.00 | 0.03 | 0.00 | 95 | 1012.5 |
| 20260903113017 | 21 | 96 | 1.6 | 4.8 | 0.00 | 0.03 | 0.00 | 95 | 1012.4 |
| 20260903112517 | 21 | 110 | 1.6 | 4.8 | 0.00 | 0.03 | 0.00 | 95 | 1012.4 |
| 20260903112017 | 21 | 127 | 0.0 | 3.2 | 0.00 | 0.03 | 0.00 | 95 | 1012.4 |
| 20260903111517 | 22 | 0.0 | 1.6 | 0.00 | 0.03 | 0.00 | 95 | 1012.2 | |
| 20260903111017 | 22 | 127 | 0.0 | 3.2 | 0.00 | 0.03 | 0.00 | 95 | 1012.1 |
| 20260903110517 | 22 | 127 | 1.6 | 4.8 | 0.00 | 0.03 | 0.00 | 95 | 1012.2 |
| 20260903110018 | 21 | 130 | 1.6 | 6.4 | 0.00 | 0.03 | 0.00 | 95 | 1012.2 |
| 20260903105537 | 21 | 125 | 1.6 | 6.4 | 0.00 | 0.03 | 0.00 | 95 | 1012.2 |
| 20260903105017 | 21 | 110 | 0.0 | 1.6 | 0.00 | 0.03 | 0.00 | 95 | 1012.2 |
| 20260903104517 | 21 | 0.0 | 0.0 | 0.00 | 0.03 | 0.00 | 95 | 1012.1 | |
| 20260903104100 | 21 | 0.0 | 0.0 | 0.00 | 0.03 | 0.00 | 95 | 1012.2 | |
| 20260903103517 | 21 | 0.0 | 0.0 | 0.00 | 0.03 | 0.00 | 95 | 1012.3 | |
| 20260903103017 | 21 | 0.0 | 0.0 | 0.00 | 0.03 | 0.00 | 95 | 1012.3 | |
| 20260903102518 | 21 | 0.0 | 0.0 | 0.00 | 0.03 | 0.00 | 95 | 1012.3 | |
| 20260903102018 | 21 | 0.0 | 0.0 | 0.00 | 0.03 | 0.00 | 95 | 1012.3 | |
| 20260903101538 | 21 | 0.0 | 0.0 | 0.00 | 0.03 | 0.00 | 95 | 1012.3 | |
| 20260903101017 | 21 | 0.0 | 0.0 | 0.00 | 0.03 | 0.00 | 95 | 1012.2 | |
| 20260903100517 | 21 | 0.0 | 0.0 | 0.00 | 0.03 | 0.00 | 95 | 1012.2 | |
| 20260903100016 | 21 | 0.0 | 0.0 | 0.00 | 0.03 | 0.00 | 95 | 1012.3 | |
| 20260903095517 | 21 | 0.0 | 0.0 | 0.00 | 0.03 | 0.00 | 95 | 1012.2 | |
| 20260903095017 | 21 | 0.0 | 0.0 | 0.00 | 0.03 | 0.00 | 94 | 1012.2 | |
| 20260903094516 | 21 | 0.0 | 0.0 | 0.00 | 0.03 | 0.00 | 94 | 1012.1 | |
| 20260903094016 | 21 | 0.0 | 0.0 | 0.00 | 0.03 | 0.00 | 94 | 1012.1 | |
| 20260903093517 | 21 | 0.0 | 1.6 | 0.00 | 0.03 | 0.00 | 95 | 1012.1 | |
| 20260903093017 | 21 | 100 | 0.0 | 1.6 | 0.00 | 0.03 | 0.00 | 95 | 1012.1 |
| 20260903092517 | 21 | 100 | 0.0 | 1.6 | 0.00 | 0.03 | 0.00 | 95 | 1012.0 |
| 20260903092018 | 21 | 100 | 0.0 | 1.6 | 0.00 | 0.03 | 0.00 | 95 | 1012.0 |
| 20260903091517 | 21 | 100 | 0.0 | 1.6 | 0.00 | 0.03 | 0.00 | 95 | 1012.1 |
| 20260903091018 | 21 | 100 | 0.0 | 3.2 | 0.00 | 0.03 | 0.00 | 94 | 1012.0 |
| 20260903090516 | 21 | 100 | 1.6 | 3.2 | 0.00 | 0.03 | 0.00 | 94 | 1012.1 |
| 20260903090017 | 21 | 100 | 0.0 | 4.8 | 0.00 | 0.03 | 0.00 | 94 | 1012.1 |
| 20260903085518 | 21 | 104 | 0.0 | 4.8 | 0.00 | 0.03 | 0.00 | 94 | 1012.1 |
| 20260903085017 | 21 | 121 | 0.0 | 3.2 | 0.00 | 0.03 | 0.00 | 94 | 1012.1 |
| 20260903084516 | 21 | 122 | 0.0 | 3.2 | 0.00 | 0.03 | 0.00 | 94 | 1012.0 |
| 20260903084016 | 21 | 122 | 0.0 | 3.2 | 0.00 | 0.03 | 0.00 | 94 | 1012.1 |
| 20260903083517 | 22 | 0.0 | 0.0 | 0.00 | 0.03 | 0.00 | 94 | 1012.0 | |
| 20260903083038 | 22 | 0.0 | 0.0 | 0.00 | 0.03 | 0.00 | 94 | 1012.1 | |
| 20260903082516 | 22 | 0.0 | 0.0 | 0.00 | 0.03 | 0.00 | 94 | 1012.2 | |
| 20260903082016 | 22 | 0.0 | 1.6 | 0.00 | 0.03 | 0.00 | 94 | 1012.1 | |
| 20260903081516 | 22 | 122 | 0.0 | 3.2 | 0.00 | 0.03 | 0.00 | 94 | 1012.1 |
| 20260903081016 | 22 | 121 | 1.6 | 3.2 | 0.00 | 0.03 | 0.00 | 94 | 1012.0 |
| 20260903080518 | 22 | 121 | 1.6 | 3.2 | 0.00 | 0.03 | 0.00 | 94 | 1012.1 |
| 20260903080036 | 22 | 122 | 1.6 | 3.2 | 0.00 | 0.03 | 0.00 | 94 | 1012.1 |
| 20260903075537 | 22 | 121 | 1.6 | 3.2 | 0.00 | 0.03 | 0.00 | 94 | 1012.1 |
| 20260903075016 | 22 | 122 | 0.0 | 1.6 | 0.00 | 0.03 | 0.00 | 93 | 1012.1 |
| 20260903074516 | 22 | 0.0 | 0.0 | 0.00 | 0.03 | 0.00 | 93 | 1012.0 | |
| 20260903074017 | 22 | 0.0 | 1.6 | 0.00 | 0.03 | 0.00 | 93 | 1012.0 | |
| 20260903073537 | 22 | 122 | 0.0 | 3.2 | 0.00 | 0.03 | 0.00 | 93 | 1012.0 |
| 20260903073018 | 22 | 121 | 1.6 | 3.2 | 0.00 | 0.03 | 0.00 | 93 | 1012.0 |
| 20260903072516 | 22 | 121 | 1.6 | 3.2 | 0.00 | 0.03 | 0.00 | 93 | 1012.0 |
| 20260903072016 | 22 | 122 | 0.0 | 1.6 | 0.00 | 0.03 | 0.00 | 93 | 1012.0 |
| 20260903071516 | 22 | 0.0 | 1.6 | 0.00 | 0.03 | 0.00 | 93 | 1011.9 | |
| 20260903071036 | 22 | 122 | 0.0 | 1.6 | 0.00 | 0.03 | 0.00 | 93 | 1011.9 |
| 20260903070517 | 22 | 121 | 0.0 | 3.2 | 0.00 | 0.03 | 0.00 | 93 | 1011.9 |
| 20260903070017 | 22 | 121 | 1.6 | 4.8 | 0.00 | 0.03 | 0.00 | 93 | 1012.0 |
| 20260903065516 | 22 | 122 | 1.6 | 4.8 | 0.00 | 0.03 | 0.00 | 93 | 1011.9 |
| 20260903065036 | 22 | 148 | 1.6 | 3.2 | 0.00 | 0.03 | 0.00 | 93 | 1012.0 |
| 20260903064516 | 22 | 0.0 | 0.0 | 0.00 | 0.03 | 0.00 | 93 | 1012.0 | |
| 20260903064016 | 22 | 0.0 | 3.2 | 0.00 | 0.03 | 0.00 | 93 | 1012.0 | |
| 20260903063536 | 22 | 148 | 0.0 | 3.2 | 0.00 | 0.03 | 0.00 | 92 | 1011.9 |
| 20260903063016 | 22 | 148 | 0.0 | 3.2 | 0.00 | 0.03 | 0.00 | 92 | 1011.9 |
| 20260903062538 | 23 | 148 | 1.6 | 3.2 | 0.00 | 0.03 | 0.00 | 92 | 1011.9 |
| 20260903062016 | 23 | 148 | 1.6 | 3.2 | 0.00 | 0.03 | 0.00 | 92 | 1011.9 |
| 20260903061558 | 23 | 148 | 1.6 | 3.2 | 0.00 | 0.03 | 0.00 | 92 | 1011.8 |
| 20260903061016 | 23 | 157 | 0.0 | 3.2 | 0.00 | 0.03 | 0.00 | 92 | 1011.8 |
| 20260903060617 | 23 | 0.0 | 0.0 | 0.00 | 0.03 | 0.00 | 92 | 1011.8 | |
| 20260903060016 | 23 | 0.0 | 0.0 | 0.00 | 0.03 | 0.00 | 92 | 1011.8 | |
| 20260903055516 | 23 | 0.0 | 0.0 | 0.00 | 0.03 | 0.00 | 92 | 1011.9 | |
| 20260903055016 | 23 | 0.0 | 0.0 | 0.00 | 0.03 | 0.00 | 92 | 1011.8 | |
| 20260903054516 | 23 | 0.0 | 0.0 | 0.00 | 0.03 | 0.00 | 92 | 1011.8 | |
| 20260903054016 | 23 | 0.0 | 0.0 | 0.00 | 0.03 | 0.00 | 92 | 1011.7 | |
| 20260903053516 | 23 | 0.0 | 0.0 | 0.00 | 0.03 | 0.00 | 91 | 1011.7 | |
| 20260903053017 | 23 | 0.0 | 0.0 | 0.00 | 0.03 | 0.00 | 91 | 1011.8 | |
| 20260903052516 | 23 | 0.0 | 3.2 | 0.00 | 0.03 | 0.00 | 92 | 1011.7 | |
| 20260903052016 | 23 | 241 | 0.0 | 3.2 | 0.00 | 0.03 | 0.00 | 92 | 1011.7 |
| 20260903051517 | 23 | 241 | 0.0 | 3.2 | 0.00 | 0.03 | 0.00 | 92 | 1011.6 |
| 20260903051016 | 23 | 239 | 0.0 | 3.2 | 0.00 | 0.03 | 0.00 | 92 | 1011.7 |
| 20260903050516 | 23 | 0.0 | 0.0 | 0.00 | 0.03 | 0.00 | 92 | 1011.7 | |
| 20260903050017 | 23 | 0.0 | 1.6 | 0.00 | 0.03 | 0.00 | 92 | 1011.6 | |
| 20260903045516 | 23 | 97 | 0.0 | 3.2 | 0.00 | 0.03 | 0.00 | 92 | 1011.7 |
| 20260903045016 | 23 | 98 | 0.0 | 3.2 | 0.00 | 0.03 | 0.00 | 92 | 1011.7 |
| 20260903044516 | 23 | 0.0 | 0.0 | 0.00 | 0.03 | 0.00 | 91 | 1011.5 | |
| 20260903044016 | 23 | 0.0 | 0.0 | 0.00 | 0.03 | 0.00 | 92 | 1011.5 | |
| 20260903043517 | 23 | 0.0 | 0.0 | 0.00 | 0.03 | 0.00 | 92 | 1011.4 | |
| 20260903043016 | 23 | 0.0 | 0.0 | 0.00 | 0.03 | 0.00 | 92 | 1011.4 | |
| 20260903042516 | 23 | 0.0 | 0.0 | 0.00 | 0.03 | 0.00 | 92 | 1011.4 | |
| 20260903042016 | 23 | 0.0 | 0.0 | 0.00 | 0.03 | 0.00 | 92 | 1011.4 | |
| 20260903041516 | 23 | 0.0 | 0.0 | 0.00 | 0.03 | 0.00 | 92 | 1011.4 | |
| 20260903041016 | 23 | 0.0 | 1.6 | 0.00 | 0.03 | 0.00 | 92 | 1011.4 | |
| 20260903040516 | 23 | 98 | 0.0 | 3.2 | 0.00 | 0.03 | 0.00 | 91 | 1011.4 |
| 20260903040016 | 23 | 98 | 0.0 | 3.2 | 0.00 | 0.03 | 0.03 | 91 | 1011.3 |
| 20260903035517 | 23 | 98 | 0.0 | 1.6 | 0.00 | 0.05 | 0.03 | 91 | 1011.3 |
| 20260903035017 | 24 | 98 | 0.0 | 1.6 | 0.00 | 0.05 | 0.03 | 91 | 1011.3 |
| 20260903034518 | 24 | 0.0 | 0.0 | 0.00 | 0.05 | 0.03 | 91 | 1011.3 | |
| 20260903034016 | 24 | 0.0 | 3.2 | 0.00 | 0.05 | 0.03 | 90 | 1011.3 | |
| 20260903033516 | 24 | 98 | 0.0 | 3.2 | 0.00 | 0.05 | 0.03 | 90 | 1011.1 |
| 20260903033016 | 24 | 0.0 | 1.6 | 0.00 | 0.05 | 0.03 | 90 | 1011.2 | |
| 20260903032517 | 24 | 98 | 0.0 | 3.2 | 0.00 | 0.05 | 0.03 | 90 | 1011.3 |
| 20260903032016 | 24 | 98 | 0.0 | 3.2 | 0.00 | 0.05 | 0.03 | 90 | 1011.2 |
| 20260903031516 | 24 | 0.0 | 3.2 | 0.00 | 0.05 | 0.03 | 89 | 1011.4 | |
| 20260903031016 | 24 | 97 | 0.0 | 3.2 | 0.00 | 0.05 | 0.03 | 89 | 1011.4 |
| 20260903030518 | 25 | 98 | 1.6 | 3.2 | 0.00 | 0.05 | 0.03 | 89 | 1011.3 |
| 20260903030016 | 25 | 98 | 0.0 | 3.2 | 0.00 | 0.05 | 0.03 | 88 | 1011.3 |
| 20260903025516 | 25 | 104 | 0.0 | 3.2 | 0.00 | 0.05 | 0.03 | 88 | 1011.4 |
| 20260903025016 | 25 | 138 | 0.0 | 3.2 | 0.00 | 0.05 | 0.03 | 87 | 1011.5 |
| 20260903024536 | 25 | 143 | 0.0 | 3.2 | 0.00 | 0.05 | 0.03 | 87 | 1011.4 |
| 20260903024017 | 25 | 292 | 1.6 | 3.2 | 0.00 | 0.05 | 0.03 | 87 | 1011.5 |
| 20260903023517 | 25 | 292 | 1.6 | 3.2 | 0.00 | 0.05 | 0.03 | 85 | 1011.4 |
| 20260903023016 | 25 | 292 | 0.0 | 3.2 | 0.00 | 0.05 | 0.03 | 84 | 1011.4 |
| 20260903022516 | 25 | 0.0 | 0.0 | 0.00 | 0.05 | 0.03 | 84 | 1011.4 | |
| 20260903022036 | 26 | 0.0 | 1.6 | 0.00 | 0.05 | 0.03 | 84 | 1011.5 | |
| 20260903021517 | 26 | 292 | 0.0 | 3.2 | 0.00 | 0.05 | 0.03 | 84 | 1011.5 |
| 20260903021016 | 26 | 292 | 0.0 | 3.2 | 0.00 | 0.05 | 0.03 | 84 | 1011.5 |
| 20260903020516 | 26 | 0.0 | 0.0 | 0.00 | 0.05 | 0.03 | 84 | 1011.3 | |
| 20260903020018 | 26 | 0.0 | 1.6 | 0.00 | 0.05 | 0.03 | 83 | 1011.4 | |
| 20260903015516 | 26 | 323 | 0.0 | 3.2 | 0.00 | 0.05 | 0.03 | 83 | 1011.3 |
| 20260903015016 | 26 | 323 | 0.0 | 3.2 | 0.00 | 0.05 | 0.03 | 83 | 1011.3 |
| 20260903014516 | 26 | 322 | 1.6 | 3.2 | 0.00 | 0.05 | 0.03 | 83 | 1011.3 |
| 20260903014017 | 26 | 310 | 0.0 | 3.2 | 0.00 | 0.05 | 0.03 | 83 | 1011.3 |
| 20260903013516 | 26 | 311 | 0.0 | 4.8 | 0.00 | 0.05 | 0.03 | 83 | 1011.3 |
| 20260903013057 | 26 | 325 | 1.6 | 4.8 | 0.00 | 0.05 | 0.03 | 84 | 1011.1 |
| 20260903012517 | 26 | 299 | 1.6 | 6.4 | 0.00 | 0.05 | 0.03 | 84 | 1011.1 |
| 20260903012016 | 26 | 267 | 0.0 | 6.4 | 0.00 | 0.05 | 0.03 | 84 | 1011.0 |
| 20260903011516 | 26 | 0.0 | 0.0 | 0.00 | 0.05 | 0.03 | 84 | 1010.9 | |
| 20260903011018 | 26 | 0.0 | 0.0 | 0.00 | 0.05 | 0.03 | 84 | 1010.9 | |
| 20260903010516 | 26 | 0.0 | 0.0 | 0.00 | 0.05 | 0.03 | 83 | 1010.9 | |
| 20260903010016 | 27 | 0.0 | 0.0 | 0.00 | 0.08 | 0.03 | 82 | 1010.8 | |
| 20260903005536 | 27 | 0.0 | 0.0 | 0.00 | 0.08 | 0.03 | 82 | 1010.8 | |
| 20260903005037 | 27 | 0.0 | 0.0 | 0.00 | 0.08 | 0.03 | 82 | 1010.8 | |
| 20260903004516 | 27 | 0.0 | 0.0 | 0.00 | 0.08 | 0.03 | 82 | 1010.6 | |
| 20260903004016 | 27 | 0.0 | 0.0 | 0.00 | 0.08 | 0.03 | 81 | 1010.5 | |
| 20260903003518 | 27 | 0.0 | 0.0 | 0.00 | 0.08 | 0.03 | 80 | 1010.5 | |
| 20260903003016 | 28 | 0.0 | 0.0 | 0.00 | 0.08 | 0.03 | 80 | 1010.5 | |
| 20260903002538 | 28 | 0.0 | 0.0 | 0.00 | 0.08 | 0.03 | 79 | 1010.4 | |
| 20260903002016 | 28 | 0.0 | 0.0 | 0.00 | 0.08 | 0.03 | 79 | 1010.4 | |
| 20260903001516 | 28 | 0.0 | 0.0 | 0.00 | 0.08 | 0.03 | 78 | 1010.4 | |
| 20260903001016 | 28 | 0.0 | 0.0 | 0.00 | 0.08 | 0.03 | 77 | 1010.5 | |
| 20260903000516 | 28 | 0.0 | 0.0 | 0.00 | 0.08 | 0.03 | 77 | 1010.5 | |
| 20260903000016 | 29 | 0.0 | 0.0 | 0.00 | 0.10 | 0.03 | 76 | 1010.5 | |
| 20260902235517 | 29 | 0.0 | 0.0 | 0.00 | 0.10 | 0.03 | 76 | 1010.7 | |
| 20260902235016 | 29 | 0.0 | 0.0 | 0.00 | 0.10 | 0.03 | 76 | 1010.6 | |
| 20260902234516 | 30 | 0.0 | 0.0 | 0.00 | 0.10 | 0.03 | 75 | 1010.5 | |
| 20260902234016 | 30 | 0.0 | 0.0 | 0.00 | 0.10 | 0.03 | 74 | 1010.5 | |
| 20260902233517 | 30 | 0.0 | 0.0 | 0.00 | 0.10 | 0.03 | 74 | 1010.6 | |
| 20260902233016 | 30 | 0.0 | 0.0 | 0.00 | 0.10 | 0.03 | 73 | 1010.5 | |
| 20260902232516 | 30 | 0.0 | 0.0 | 0.00 | 0.10 | 0.03 | 73 | 1010.5 | |
| 20260902232016 | 30 | 0.0 | 0.0 | 0.00 | 0.10 | 0.03 | 72 | 1010.5 | |
| 20260902231516 | 30 | 0.0 | 0.0 | 0.00 | 0.13 | 0.03 | 70 | 1010.4 | |
| 20260902231016 | 30 | 0.0 | 1.6 | 0.00 | 0.13 | 0.03 | 71 | 1010.5 | |
| 20260902230517 | 30 | 269 | 0.0 | 1.6 | 0.00 | 0.13 | 0.03 | 72 | 1010.6 |
| 20260902230016 | 30 | 0.0 | 1.6 | 0.00 | 0.13 | 0.03 | 71 | 1010.6 | |
| 20260902225536 | 30 | 269 | 0.0 | 3.2 | 0.00 | 0.13 | 0.03 | 70 | 1010.6 |
| 20260902225016 | 30 | 269 | 0.0 | 3.2 | 0.00 | 0.13 | 0.03 | 70 | 1010.6 |
| 20260902224517 | 30 | 268 | 0.0 | 4.8 | 0.00 | 0.13 | 0.03 | 67 | 1010.6 |
| 20260902224017 | 30 | 263 | 1.6 | 4.8 | 0.00 | 0.13 | 0.03 | 68 | 1010.7 |
| 20260902223516 | 30 | 258 | 1.6 | 6.4 | 0.00 | 0.13 | 0.03 | 67 | 1010.7 |
| 20260902223016 | 30 | 263 | 1.6 | 6.4 | 0.00 | 0.13 | 0.03 | 66 | 1010.8 |
| 20260902222537 | 30 | 255 | 3.2 | 6.4 | 0.00 | 0.13 | 0.03 | 66 | 1010.8 |
| 20260902222016 | 31 | 249 | 3.2 | 6.4 | 0.00 | 0.13 | 0.03 | 65 | 1010.8 |
| 20260902221516 | 31 | 245 | 3.2 | 8.0 | 0.00 | 0.13 | 0.03 | 65 | 1010.7 |
| 20260902221016 | 31 | 245 | 3.2 | 8.0 | 0.00 | 0.13 | 0.03 | 64 | 1010.7 |
| 20260902220516 | 31 | 239 | 4.8 | 14.5 | 0.00 | 0.13 | 0.03 | 63 | 1010.7 |
| 20260902220017 | 31 | 248 | 6.4 | 16.1 | 0.00 | 0.13 | 0.03 | 63 | 1010.7 |
| 20260902215516 | 31 | 246 | 8.0 | 16.1 | 0.00 | 0.13 | 0.03 | 62 | 1010.7 |
| 20260902215016 | 31 | 236 | 4.8 | 19.3 | 0.00 | 0.13 | 0.03 | 62 | 1010.7 |
| 20260902214516 | 31 | 243 | 11.3 | 20.9 | 0.00 | 0.13 | 0.03 | 61 | 1010.7 |
| 20260902214016 | 31 | 227 | 11.3 | 20.9 | 0.00 | 0.13 | 0.03 | 59 | 1010.7 |
| 20260902213516 | 32 | 229 | 8.0 | 25.7 | 0.00 | 0.13 | 0.03 | 59 | 1010.6 |
| 20260902213016 | 32 | 229 | 12.9 | 25.7 | 0.00 | 0.13 | 0.03 | 58 | 1010.6 |
| 20260902212516 | 32 | 223 | 9.7 | 20.9 | 0.00 | 0.13 | 0.03 | 60 | 1010.7 |
| 20260902212017 | 32 | 225 | 11.3 | 20.9 | 0.00 | 0.15 | 0.03 | 59 | 1010.7 |
| 20260902211517 | 32 | 223 | 8.0 | 17.7 | 0.00 | 0.15 | 0.03 | 60 | 1010.7 |
| 20260902211016 | 32 | 221 | 6.4 | 17.7 | 0.00 | 0.15 | 0.03 | 60 | 1010.6 |
| 20260902210516 | 32 | 244 | 9.7 | 17.7 | 0.00 | 0.15 | 0.03 | 57 | 1010.7 |
| 20260902210016 | 32 | 222 | 9.7 | 25.7 | 0.00 | 0.15 | 0.03 | 59 | 1010.8 |
| 20260902205517 | 32 | 234 | 14.5 | 25.7 | 0.00 | 0.15 | 0.03 | 57 | 1010.8 |
| 20260902205016 | 32 | 231 | 14.5 | 30.6 | 0.00 | 0.15 | 0.03 | 55 | 1010.8 |
| 20260902204516 | 32 | 228 | 16.1 | 32.2 | 0.00 | 0.15 | 0.03 | 56 | 1011.0 |
| 20260902204016 | 32 | 234 | 14.5 | 32.2 | 0.00 | 0.15 | 0.03 | 58 | 1010.9 |
| 20260902203516 | 32 | 218 | 9.7 | 19.3 | 0.00 | 0.15 | 0.03 | 59 | 1010.8 |
| 20260902203016 | 32 | 208 | 11.3 | 19.3 | 0.00 | 0.15 | 0.03 | 58 | 1010.9 |
| 20260902202516 | 32 | 211 | 9.7 | 19.3 | 0.00 | 0.15 | 0.03 | 58 | 1010.9 |
| 20260902202016 | 32 | 214 | 11.3 | 27.4 | 0.00 | 0.15 | 0.03 | 58 | 1011.0 |
| 20260902201515 | 32 | 232 | 11.3 | 27.4 | 0.00 | 0.15 | 0.03 | 59 | 1011.1 |
| 20260902201016 | 32 | 233 | 8.0 | 19.3 | 0.00 | 0.15 | 0.03 | 58 | 1011.2 |
| 20260902200515 | 32 | 219 | 9.7 | 32.2 | 0.00 | 0.15 | 0.03 | 57 | 1011.2 |
| 20260902200017 | 32 | 229 | 12.9 | 32.2 | 0.00 | 0.15 | 0.03 | 55 | 1011.2 |
| 20260902195516 | 32 | 224 | 8.0 | 19.3 | 0.00 | 0.15 | 0.03 | 57 | 1011.3 |
| 20260902195035 | 32 | 215 | 11.3 | 24.1 | 0.00 | 0.15 | 0.03 | 59 | 1011.3 |
| 20260902194515 | 32 | 225 | 11.3 | 24.1 | 0.00 | 0.15 | 0.03 | 58 | 1011.4 |
| 20260902194017 | 32 | 209 | 9.7 | 19.3 | 0.00 | 0.15 | 0.03 | 57 | 1011.4 |
| 20260902193516 | 32 | 213 | 9.7 | 33.8 | 0.00 | 0.15 | 0.03 | 59 | 1011.5 |
| 20260902193017 | 32 | 187 | 14.5 | 33.8 | 0.00 | 0.15 | 0.03 | 57 | 1011.4 |
| 20260902192515 | 32 | 186 | 11.3 | 27.4 | 0.00 | 0.15 | 0.03 | 58 | 1011.6 |
| 20260902192015 | 32 | 215 | 11.3 | 20.9 | 0.00 | 0.15 | 0.03 | 59 | 1011.7 |
| 20260902191515 | 32 | 198 | 11.3 | 20.9 | 0.00 | 0.15 | 0.03 | 58 | 1011.8 |
| 20260902191016 | 32 | 195 | 11.3 | 20.9 | 0.00 | 0.15 | 0.03 | 59 | 1011.9 |
| 20260902190516 | 32 | 201 | 9.7 | 19.3 | 0.00 | 0.15 | 0.03 | 61 | 1012.1 |
| 20260902190035 | 32 | 213 | 8.0 | 20.9 | 0.00 | 0.15 | 0.03 | 61 | 1012.1 |
| 20260902185515 | 31 | 224 | 11.3 | 20.9 | 0.00 | 0.15 | 0.03 | 61 | 1012.3 |
| 20260902185016 | 31 | 212 | 11.3 | 22.5 | 0.00 | 0.15 | 0.03 | 61 | 1012.3 |
| 20260902184515 | 31 | 191 | 9.7 | 22.5 | 0.00 | 0.15 | 0.03 | 62 | 1012.3 |
| 20260902184016 | 31 | 245 | 9.7 | 19.3 | 0.00 | 0.15 | 0.03 | 60 | 1012.4 |
| 20260902183516 | 31 | 217 | 12.9 | 22.5 | 0.00 | 0.15 | 0.03 | 61 | 1012.5 |
| 20260902183035 | 31 | 231 | 11.3 | 24.1 | 0.00 | 0.15 | 0.03 | 61 | 1012.5 |
| 20260902182515 | 31 | 230 | 14.5 | 24.1 | 0.00 | 0.15 | 0.03 | 61 | 1012.6 |
| 20260902182015 | 31 | 233 | 9.7 | 25.7 | 0.00 | 0.15 | 0.03 | 64 | 1012.6 |
| 20260902181515 | 31 | 232 | 11.3 | 25.7 | 0.00 | 0.15 | 0.03 | 63 | 1012.7 |
| 20260902181036 | 31 | 248 | 9.7 | 19.3 | 0.00 | 0.15 | 0.03 | 61 | 1012.6 |
| 20260902180515 | 31 | 240 | 12.9 | 19.3 | 0.00 | 0.15 | 0.03 | 62 | 1012.7 |
| 20260902180036 | 31 | 237 | 8.0 | 16.1 | 0.00 | 0.15 | 0.03 | 66 | 1012.7 |
| 20260902175516 | 30 | 267 | 6.4 | 20.9 | 0.00 | 0.15 | 0.03 | 64 | 1012.7 |
| 20260902175015 | 30 | 248 | 14.5 | 20.9 | 0.00 | 0.15 | 0.03 | 64 | 1012.8 |
| 20260902174515 | 30 | 230 | 6.4 | 17.7 | 0.00 | 0.15 | 0.03 | 66 | 1012.9 |
| 20260902174035 | 30 | 219 | 11.3 | 17.7 | 0.00 | 0.15 | 0.03 | 65 | 1012.9 |
| 20260902173515 | 30 | 238 | 4.8 | 14.5 | 0.00 | 0.15 | 0.03 | 68 | 1012.9 |
| 20260902173036 | 30 | 263 | 8.0 | 16.1 | 0.00 | 0.15 | 0.03 | 67 | 1012.9 |
| 20260902172515 | 30 | 239 | 8.0 | 17.7 | 0.00 | 0.15 | 0.03 | 67 | 1013.0 |
| 20260902172015 | 30 | 208 | 9.7 | 17.7 | 0.00 | 0.15 | 0.03 | 66 | 1013.0 |
| 20260902171516 | 30 | 199 | 6.4 | 16.1 | 0.00 | 0.15 | 0.03 | 69 | 1013.0 |
| 20260902171015 | 30 | 202 | 4.8 | 14.5 | 0.00 | 0.15 | 0.03 | 70 | 1013.1 |
| 20260902170515 | 29 | 199 | 8.0 | 14.5 | 0.00 | 0.15 | 0.03 | 71 | 1013.1 |
| 20260902170015 | 29 | 205 | 6.4 | 14.5 | 0.00 | 0.15 | 0.03 | 72 | 1013.0 |
| 20260902165516 | 29 | 226 | 8.0 | 12.9 | 0.00 | 0.15 | 0.03 | 72 | 1013.0 |
| 20260902165015 | 29 | 208 | 4.8 | 16.1 | 0.00 | 0.15 | 0.03 | 71 | 1013.0 |
| 20260902164515 | 29 | 181 | 9.7 | 16.1 | 0.00 | 0.15 | 0.03 | 71 | 1013.1 |
| 20260902164015 | 29 | 203 | 8.0 | 16.1 | 0.00 | 0.15 | 0.03 | 73 | 1013.1 |
| 20260902163515 | 28 | 225 | 6.4 | 12.9 | 0.00 | 0.15 | 0.03 | 73 | 1013.0 |
| 20260902163015 | 28 | 213 | 6.4 | 19.3 | 0.00 | 0.15 | 0.03 | 72 | 1013.0 |
| 20260902162515 | 28 | 177 | 8.0 | 19.3 | 0.00 | 0.15 | 0.03 | 73 | 1012.9 |
| 20260902162015 | 28 | 196 | 8.0 | 16.1 | 0.00 | 0.15 | 0.03 | 74 | 1012.9 |
| 20260902161516 | 28 | 188 | 8.0 | 16.1 | 0.00 | 0.15 | 0.03 | 73 | 1013.0 |
| 20260902161015 | 28 | 198 | 8.0 | 12.9 | 0.00 | 0.15 | 0.03 | 74 | 1013.0 |
| 20260902160535 | 28 | 222 | 4.8 | 11.3 | 0.00 | 0.15 | 0.03 | 76 | 1013.0 |
| 20260902160015 | 28 | 224 | 6.4 | 11.3 | 0.00 | 0.15 | 0.03 | 76 | 1013.1 |
| 20260902155516 | 28 | 223 | 4.8 | 11.3 | 0.00 | 0.15 | 0.03 | 76 | 1013.1 |
| 20260902155015 | 28 | 206 | 3.2 | 11.3 | 0.00 | 0.15 | 0.03 | 76 | 1013.1 |
| 20260902154515 | 27 | 244 | 6.4 | 11.3 | 0.00 | 0.15 | 0.03 | 76 | 1013.2 |
| 20260902154036 | 27 | 225 | 3.2 | 14.5 | 0.00 | 0.15 | 0.03 | 79 | 1013.2 |
| 20260902153516 | 27 | 228 | 6.4 | 14.5 | 0.00 | 0.15 | 0.03 | 77 | 1013.2 |
| 20260902153015 | 27 | 244 | 6.4 | 12.9 | 0.00 | 0.15 | 0.03 | 79 | 1013.2 |
| 20260902152515 | 27 | 251 | 4.8 | 12.9 | 0.00 | 0.15 | 0.03 | 78 | 1013.1 |
| 20260902152015 | 27 | 246 | 6.4 | 12.9 | 0.00 | 0.15 | 0.03 | 79 | 1013.3 |
| 20260902151516 | 27 | 228 | 6.4 | 14.5 | 0.00 | 0.15 | 0.03 | 79 | 1013.2 |
| 20260902151015 | 26 | 251 | 6.4 | 14.5 | 0.00 | 0.15 | 0.03 | 80 | 1013.2 |
| 20260902150515 | 26 | 236 | 8.0 | 14.5 | 0.00 | 0.15 | 0.03 | 81 | 1013.3 |
| 20260902150015 | 26 | 247 | 8.0 | 17.7 | 0.00 | 0.15 | 0.03 | 82 | 1013.3 |
| 20260902145515 | 26 | 262 | 8.0 | 20.9 | 0.00 | 0.15 | 0.03 | 80 | 1013.2 |
| 20260902145015 | 26 | 281 | 9.7 | 20.9 | 0.00 | 0.15 | 0.03 | 81 | 1013.2 |
| 20260902144516 | 26 | 270 | 8.0 | 14.5 | 0.00 | 0.15 | 0.03 | 82 | 1013.2 |
| 20260902144015 | 26 | 264 | 6.4 | 17.7 | 0.00 | 0.15 | 0.03 | 83 | 1013.2 |
| 20260902143515 | 26 | 272 | 8.0 | 19.3 | 0.00 | 0.15 | 0.03 | 83 | 1013.2 |
| 20260902143015 | 25 | 253 | 11.3 | 19.3 | 0.00 | 0.15 | 0.03 | 85 | 1013.3 |
| 20260902142535 | 25 | 254 | 9.7 | 17.7 | 0.00 | 0.15 | 0.03 | 86 | 1013.3 |
| 20260902142015 | 25 | 252 | 8.0 | 16.1 | 0.00 | 0.15 | 0.03 | 88 | 1013.3 |
| 20260902141515 | 25 | 270 | 9.7 | 19.3 | 0.00 | 0.15 | 0.03 | 91 | 1013.5 |
| 20260902141017 | 24 | 269 | 9.7 | 19.3 | 0.00 | 0.15 | 0.03 | 93 | 1013.5 |
| 20260902140517 | 24 | 265 | 3.2 | 11.3 | 0.00 | 0.15 | 0.03 | 94 | 1013.4 |
| 20260902140017 | 24 | 192 | 1.6 | 8.0 | 0.00 | 0.15 | 0.03 | 95 | 1012.8 |
| 20260902135517 | 24 | 192 | 1.6 | 8.0 | 0.00 | 0.15 | 0.03 | 96 | 1012.8 |
| 20260902135018 | 23 | 204 | 3.2 | 8.0 | 0.00 | 0.15 | 0.03 | 96 | 1012.9 |
| 20260902134515 | 23 | 197 | 1.6 | 6.4 | 0.00 | 0.15 | 0.03 | 96 | 1012.9 |
| 20260902134018 | 23 | 207 | 1.6 | 6.4 | 0.00 | 0.15 | 0.03 | 96 | 1012.8 |
| 20260902133517 | 23 | 189 | 3.2 | 6.4 | 0.00 | 0.15 | 0.03 | 96 | 1012.8 |
| 20260902133017 | 23 | 197 | 3.2 | 4.8 | 0.00 | 0.15 | 0.03 | 96 | 1012.9 |
| 20260902132517 | 23 | 157 | 0.0 | 4.8 | 0.00 | 0.15 | 0.03 | 97 | 1012.9 |
| 20260902132017 | 23 | 155 | 1.6 | 4.8 | 0.00 | 0.15 | 0.03 | 97 | 1012.9 |
| 20260902131517 | 23 | 173 | 0.0 | 3.2 | 0.00 | 0.15 | 0.03 | 97 | 1012.9 |